Regional Weather Roundup
Issued by NWS Newport/Morehead, NC

Current Version | Previous Version | Text Only | Print | Product List | Glossary On
Versions: 1 2 3 4 5 6 7 8 9 10 11 12 13 14 15 16 17 18 19 20 21 22 23 24 25 26 27 28 29 30 31 32 33 34 35 36 37 38 39 40 41 42 43 44 45 46 47 48 49 50
000
ASUS42 KMHX 200213
RWRMHX
WEATHER ROUNDUP FOR EASTERN NORTH CAROLINA
NATIONAL WEATHER SERVICE NEWPORT/MOREHEAD CITY NC
900 PM EST SUN NOV 19 2017

NOTE: "FAIR" INDICATES FEW OR NO CLOUDS BELOW 12,000 FEET
WITH NO SIGNIFICANT WEATHER AND/OR OBSTRUCTIONS TO VISIBILITY

NCZ015>017-031-032-045>047-102-103-200300-
NORTH COAST

CITY           SKY/WX    TMP DP  RH WIND       PRES   REMARKS
EDENTON        CLEAR     50  32  49 NW3G18    29.97R
ELIZABETH CITY CLEAR     47  33  58 W12       29.96R
KITTY HAWK     CLEAR     52  34  50 NW13G22   29.91R
MANTEO         CLEAR     52  33  49 NW13G25   29.94R

$$

NCZ045>047-081-094-103-104-200300-
CENTRAL COAST

CITY           SKY/WX    TMP DP  RH WIND       PRES   REMARKS
FRISCO         CLEAR     55  38  52 NW14G23   29.94R

$$

NCZ095-097-098-100-101-200300-
SOUTHERN COAST

CITY           SKY/WX    TMP DP  RH WIND       PRES   REMARKS
BEAUFORT       CLEAR     51  37  58 NW15      29.98R
CEDAR ISLAND   NOT AVBL
JACKSONVILLE   CLEAR     49  33  54 NW12      29.99R
PINEY ISLAND   NOT AVBL
WILMINGTON     CLEAR     47  35  63 NW7       30.01R


$$

NCZ011>013-027>030-043-044-078>080-089-090>093-098-200300-
COASTAL PLAIN

CITY           SKY/WX    TMP DP  RH WIND       PRES   REMARKS
AHOSKIE        CLEAR     44  26  47 W5        29.99R
CLINTON        CLEAR     49  32  51 N5        30.02R
ELIZABETHTOWN  NOT AVBL
GOLDSBORO      CLEAR     48  26  43 NW9       30.01R
GREENVILLE     CLEAR     48  28  46 NW7       30.02R
HAVELOCK       NOT AVBL
KENANSVILLE    CLEAR     48  30  49 NW9       30.01R
KINSTON        CLEAR     46  28  49 NW9G16    30.02R
NEW BERN       CLEAR     48  31  51 NW8       30.00R
RICHLANDS      CLEAR     47  32  56 NW6       30.01R
ROCKY MOUNT    CLEAR     44  26  49 NW10      30.02R
WASHINGTON     CLEAR     48  31  52 N8        29.99R
WHITEVILLE     CLEAR     48  33  55 CALM      30.01R

$$

AMZ130-135-150-152-154-156-158-170-250-252-270-ANZ085-086-088-633-658-670-200300-
MARINE OBSERVATIONS

STATION/POSITION TIME  TEMP    WIND        PRES    WAVE   SWELL
                       AIR SEA DIR/SP/G            HT/PER HT/PER
                 (UTC) (F)     (DEG/KT/KT) (MB)    (FT/S) (FT/S)
CHESAPEAKE LIGHT NOT AVBL
64 E VA BEACH    0150   53 61  340/ 21/ 27 1012.3    7/ 6   2/11
DUCK             0142   52 61  300/ 17/ 22 1012.9
2 E DUCK         0200      62                N/A     3/ 6
OREGON INLET     0142   53 58  290/ 14/ 19 1013.0
13E OREGON INLT  0148      63                N/A     6/ 7   3/ 7
HATTERAS CG      0142   56 61  320/ 20/ 22 1013.3
DIAMOND BUOY     0200   59 67  320/ 19/ 27 1013.6
CAPE LOOKOUT     0200          320/ 15/ 18 1015.1
BEAUFORT LAB     0142   53 61  330/  5/  9 1014.8
30 SE NEW RVR IN 0108   60 69  330/ 17/ 23 1013.8
30 SE NEW RVR IN 0200      68                N/A     6/ 8
27 SE WRIGHTSVLE 0108   61 68  330/ 19/ 27 1013.8
5 SE WRIGHTSVLE  NOT AVBL
225 S CAPE HAT   0150   71 77  320/ 21/ 25 1011.2   10/ 8
41 SE CHARLESTON 0200   64 73  330/ 17/ 23 1015.5

$$



USA.gov is the U.S. government's official web portal to all federal, state and local government web resources and services.